Weather History for Mosby, MO

Change the Weather History Date:

Sunday, August 18, 2013

  Actual Average (KMKC) Record (KMKC)
Temperature  
Mean Temperature 66 °F -  
Max Temperature 80 °F 86 °F 104 °F (2003)
Min Temperature 51 °F 67 °F 57 °F (2012)
Growing Degree Days 16 (Base 50)    
Moisture  
Dew Point 58 °F    
Average Humidity 78    
Maximum Humidity 100    
Minimum Humidity 47    
Precipitation  
Precipitation 0.00 in - - ()
Sea Level Pressure  
Sea Level Pressure 30.14 in    
Wind  
Wind Speed 1 mph (SE)    
Max Wind Speed 8 mph    
Max Gust Speed 16 mph    
Visibility 9 miles    
Events      
Averages and records for this station are not official NWS values.
T = Trace of Precipitation, MM = Missing Value Source: NWS Daily Summary

Daily Weather History Graph

Daily Weather History Graph

Search for Another Location

Airport:

Trip Planner

Search our weather history database for the weather conditions in past years. The results will help you decide how hot, cold, wet, or windy it might be!

Date:

Astronomy

Aug. 18, 2013 Rise Set
Actual Time 6:33 AM CDT 8:08 PM CDT
Civil Twilight 6:04 AM CDT 8:36 PM CDT
Nautical Twilight 5:30 AM CDT 9:10 PM CDT
Astronomical Twilight 4:53 AM CDT 9:46 PM CDT
Moon 6:14 PM CDT (8/18) 3:43 AM CDT (8/18)
Length of Visible Light 14h 31m
Length of Day
13h 35m
Waxing Gibbous, 92% of the Moon is Illuminated
Aug 18
Waxing Gibbous
Aug 20
Full
Aug 28
Last Quarter
Sep 5
New
Sep 12
First Quarter

Hourly Weather History & Observations

Time (CDT) Temp. Heat Index Dew Point Humidity Pressure Visibility Wind Dir Wind Speed Gust Speed Precip Events Conditions
12:15 AM 57.2 °F - 57.2 °F 100% 30.14 in 2.5 mi Calm Calm - N/A   Clear
12:35 AM 55.4 °F - 55.4 °F 100% 30.14 in 10.0 mi Calm Calm - N/A   Clear
12:55 AM 55.4 °F - 55.4 °F 100% 30.14 in 7.0 mi Calm Calm - N/A   Clear
1:15 AM 55.4 °F - 55.4 °F 100% 30.15 in 5.0 mi Calm Calm - N/A   Clear
1:35 AM 55.4 °F - 55.4 °F 100% 30.14 in 10.0 mi Calm Calm - N/A   Clear
1:55 AM 55.4 °F - 55.4 °F 100% 30.15 in 10.0 mi Calm Calm - N/A   Clear
2:15 AM 55.4 °F - 55.4 °F 100% 30.15 in 7.0 mi Calm Calm - N/A   Clear
2:35 AM 55.4 °F - 55.4 °F 100% 30.15 in 5.0 mi Calm Calm - N/A   Clear
2:55 AM 53.6 °F - 53.6 °F 100% 30.14 in 10.0 mi Calm Calm - N/A   Clear
3:15 AM 53.6 °F - 53.6 °F 100% 30.14 in 10.0 mi Calm Calm - N/A   Clear
3:35 AM 53.6 °F - 53.6 °F 100% 30.15 in 10.0 mi Calm Calm - N/A   Clear
3:55 AM 53.6 °F - 53.6 °F 100% 30.15 in 7.0 mi Calm Calm - N/A   Clear
4:15 AM 53.6 °F - 53.6 °F 100% 30.15 in 10.0 mi Calm Calm - N/A   Clear
4:35 AM 53.6 °F - 53.6 °F 100% 30.15 in 10.0 mi Calm Calm - N/A   Clear
4:55 AM 53.6 °F - 53.6 °F 100% 30.15 in 2.5 mi Calm Calm - N/A   Clear
5:15 AM 51.8 °F - 51.8 °F 100% 30.15 in 1.2 mi Calm Calm - N/A   Mist
5:35 AM 51.8 °F - 51.8 °F 100% 30.15 in 7.0 mi Calm Calm - N/A   Clear
5:55 AM 51.8 °F - 51.8 °F 100% 30.16 in 4.0 mi Calm Calm - N/A   Clear
6:15 AM 51.8 °F - 51.8 °F 100% 30.16 in 10.0 mi Calm Calm - N/A   Clear
6:35 AM 51.8 °F - 51.8 °F 100% 30.17 in 7.0 mi Calm Calm - N/A   Clear
6:55 AM 51.8 °F - 51.8 °F 100% 30.17 in 10.0 mi Calm Calm - N/A   Clear
7:15 AM 51.8 °F - 51.8 °F 100% 30.17 in 10.0 mi Calm Calm - N/A   Clear
7:35 AM 53.6 °F - 53.6 °F 100% 30.17 in 10.0 mi Calm Calm - N/A   Clear
7:55 AM 55.4 °F - 55.4 °F 100% 30.18 in 10.0 mi Calm Calm - N/A   Unknown
8:15 AM 57.2 °F - 57.2 °F 100% 30.18 in 10.0 mi Calm Calm - N/A   Clear
8:35 AM 59.0 °F - 59.0 °F 100% 30.19 in 10.0 mi Calm Calm - N/A   Clear
8:55 AM 62.6 °F - 59.0 °F 88% 30.19 in 10.0 mi Calm Calm - N/A   Clear
9:15 AM 64.4 °F - 60.8 °F 88% 30.18 in 10.0 mi Calm Calm - N/A   Clear
9:35 AM 68.0 °F - 59.0 °F 73% 30.19 in 10.0 mi Calm Calm - N/A   Clear
9:55 AM 69.8 °F - 60.8 °F 73% 30.19 in 10.0 mi ESE 3.5 mph - N/A   Clear
10:15 AM 71.6 °F - 60.8 °F 69% 30.19 in 10.0 mi Calm Calm - N/A   Clear
10:35 AM 71.6 °F - 60.8 °F 69% 30.19 in 10.0 mi ESE 3.5 mph - N/A   Clear
10:55 AM 73.4 °F - 60.8 °F 65% 30.19 in 10.0 mi East 3.5 mph - N/A   Clear
11:15 AM 75.2 °F - 60.8 °F 61% 30.18 in 10.0 mi Calm Calm - N/A   Unknown
11:35 AM 77.0 °F - 60.8 °F 57% 30.18 in 10.0 mi East 4.6 mph - N/A   Clear
11:55 AM 77.0 °F - 59.0 °F 54% 30.17 in 10.0 mi SSE 4.6 mph - N/A   Scattered Clouds
12:15 PM 77.0 °F - 59.0 °F 54% 30.17 in 10.0 mi Calm Calm - N/A   Scattered Clouds
12:35 PM 77.0 °F - 59.0 °F 54% 30.16 in 10.0 mi South 3.5 mph - N/A   Scattered Clouds
12:55 PM 77.0 °F - 59.0 °F 54% 30.15 in 10.0 mi East 4.6 mph - N/A   Mostly Cloudy
1:15 PM 77.0 °F - 59.0 °F 54% 30.15 in 10.0 mi East 5.8 mph - N/A   Scattered Clouds
1:35 PM 78.8 °F - 57.2 °F 47% 30.15 in 10.0 mi SSE 5.8 mph - N/A   Scattered Clouds
1:55 PM 78.8 °F - 59.0 °F 51% 30.14 in 10.0 mi Calm Calm - N/A   Scattered Clouds
2:15 PM 78.8 °F - 59.0 °F 51% 30.13 in 10.0 mi SSE 4.6 mph - N/A   Scattered Clouds
2:35 PM 80.6 °F 81.1 °F 59.0 °F 48% 30.12 in 10.0 mi SE 6.9 mph - N/A   Mostly Cloudy
2:55 PM 80.6 °F 81.1 °F 59.0 °F 48% 30.12 in 10.0 mi East 4.6 mph - N/A   Scattered Clouds
3:15 PM 80.6 °F 81.1 °F 59.0 °F 48% 30.11 in 10.0 mi SE 8.1 mph 16.1 mph N/A   Mostly Cloudy
3:35 PM 78.8 °F - 59.0 °F 51% 30.11 in 10.0 mi SE 3.5 mph - N/A   Scattered Clouds
3:55 PM 80.6 °F 81.1 °F 59.0 °F 48% 30.10 in 10.0 mi ESE 5.8 mph - N/A   Scattered Clouds
4:15 PM 80.6 °F 81.1 °F 59.0 °F 48% 30.10 in 10.0 mi South 4.6 mph - N/A   Scattered Clouds
4:35 PM 80.6 °F 81.1 °F 59.0 °F 48% 30.09 in 10.0 mi SSE 3.5 mph - N/A   Scattered Clouds
4:55 PM 80.6 °F 81.5 °F 60.8 °F 51% 30.09 in 10.0 mi SE 3.5 mph - N/A   Clear
5:15 PM 80.6 °F 81.5 °F 60.8 °F 51% 30.09 in 10.0 mi ESE 5.8 mph - N/A   Clear
5:35 PM 80.6 °F 81.5 °F 60.8 °F 51% 30.09 in 10.0 mi SE 5.8 mph - N/A   Clear
5:55 PM 78.8 °F - 60.8 °F 54% 30.09 in 10.0 mi Calm Calm - N/A   Clear
6:15 PM 80.6 °F 81.5 °F 60.8 °F 51% 30.08 in 10.0 mi SE 4.6 mph - N/A   Clear
6:35 PM 78.8 °F - 60.8 °F 54% 30.08 in 10.0 mi ESE 4.6 mph - N/A   Clear
6:55 PM 78.8 °F - 60.8 °F 54% 30.08 in 10.0 mi SE 3.5 mph - N/A   Unknown
7:15 PM 78.8 °F - 62.6 °F 57% 30.08 in 10.0 mi SE 3.5 mph - N/A   Unknown
7:35 PM 77.0 °F - 62.6 °F 61% 30.08 in 10.0 mi ESE 3.5 mph - N/A   Clear
7:55 PM 77.0 °F - 62.6 °F 61% 30.08 in 10.0 mi Calm Calm - N/A   Clear
8:15 PM 75.2 °F - 62.6 °F 65% 30.08 in 10.0 mi Calm Calm - N/A   Clear
8:35 PM 73.4 °F - 62.6 °F 69% 30.08 in 10.0 mi Calm Calm - N/A   Clear
8:55 PM 69.8 °F - 62.6 °F 78% 30.09 in 10.0 mi Calm Calm - N/A   Clear
9:15 PM 68.0 °F - 64.4 °F 88% 30.09 in 10.0 mi Calm Calm - N/A   Clear
9:35 PM 68.0 °F - 64.4 °F 88% 30.10 in 10.0 mi Calm Calm - N/A   Clear
9:55 PM 66.2 °F - 64.4 °F 94% 30.10 in 10.0 mi Calm Calm - N/A   Clear
10:15 PM 64.4 °F - 64.4 °F 100% 30.10 in 7.0 mi Calm Calm - N/A   Clear
10:35 PM 64.4 °F - 64.4 °F 100% 30.11 in 7.0 mi Calm Calm - N/A   Clear
10:55 PM 62.6 °F - 62.6 °F 100% 30.11 in 7.0 mi Calm Calm - N/A   Clear
11:15 PM 62.6 °F - 62.6 °F 100% 30.11 in 5.0 mi Calm Calm - N/A   Clear
11:35 PM 62.6 °F - 62.6 °F 100% 30.12 in 5.0 mi Calm Calm - N/A   Clear
11:55 PM 62.6 °F - 62.6 °F 100% 30.12 in 3.0 mi Calm Calm - N/A   Clear